OSIRIS-3U (43027 NORAD) Tracking and Keplerian Element Data

This shows tracking and keplerian element data for the satellite.

Feedback or suggestion? Click here.




ElementValue
Catalog43027
NameOSIRIS-3U
Epoch Orbit3718
Epoch Day198.6068967
Epoch Year2018
RAAN216.4674
Inclination51.6358
Eccentricity0.0002526
Argument of Perigee307.6384
Mean Anonmoly52.4382
Mean Motion15.65909961
Decay Rate0.00029281
L11 43027U 98067NL 18198.60689670 .00029281 00000-0 28616-3 0 9993
L22 43027 51.6358 216.4674 0002526 307.6384 52.4382 15.65909961 37186

Live tracking and technical data element details for OSIRIS-3U (NORAD 43027). OSIRIS-3U can be tracked NOW for your location showing map with azimuth and elevation plus other details from your city location.

Track the satellite on the map from your city or location and see movement details for azimuth, elevation, latitude, longitude, range, height, and movement on the map or in text.







IsCatalogInMostPopularTable: catalog: 43027, numindb: 96
Update: records affected: 1



GetName: 43027 OSIRIS-3U

Hit Count: updated at: Wed, 18 Jul 2018 20:31:19 GMT